Flag for Israel Weather past 2 weeks in Kfar Saba, Israel

Now
82 °F

Passing clouds.


Feels Like: 87 °F
Forecast: 73 / 90 °F
Wind: 3 mph from North

Location: Dov Airport

Current Time: Jul 31, 2014 at 9:44:57 PM

Latest Report: Jul 31, 2014 at 8:50 PM


Visibility: N/A

Pressure: 29.71 "Hg

Humidity: 70%

Dew point: 72 °F

Location of Kfar SabaLocation

Historic Weather in Kfar Saba — Graph

°F

Kfar Saba temperature yesterday

Maximum temperature yesterday: 88 °F (at 11:50 AM)
Minimum temperature yesterday: 75 °F (at 5:50 AM)
Average temperature yesterday: 83 °F

Past Weeks' High & Low Weather Summary

 TemperatureHumidityPressure
High88 °F (Jul 24, 2:50 PM)89% (Jul 24, 6:50 AM)29.89 "Hg (Jul 24, 6:50 AM)
Low75 °F (Jul 30, 5:50 AM)55% (Jul 25, 11:50 AM)29.71 "Hg (Jul 20, 4:50 AM)
Average83 °F68%29.77 "Hg
* Reported Jul 16 7:50 PM — Jul 31 7:50 PM, Kfar Saba, Weather by CustomWeather, © 2014

Note: Actual official high and low records may vary slightly from our data, if they occured in-between our weather recording intervals... More about our weather records

Advertising

Kfar Saba weather history for previous 24 hours

 ConditionsComfort  
Time TempWeatherWind HumidityBarometerVisibility
7:50 PM
Jul 31
82 °FScattered clouds.5 mph70%29.71 "HgN/A
6:50 PM84 °FScattered clouds.7 mph66%29.71 "HgN/A
5:50 PM84 °FPartly sunny.8 mph66%29.71 "HgN/A
4:50 PM86 °FPassing clouds.9 mph62%29.71 "HgN/A
3:50 PM86 °FPassing clouds.12 mph62%29.71 "HgN/A
2:50 PM86 °FPassing clouds.12 mph62%29.71 "HgN/A
1:50 PM86 °FPassing clouds.12 mph59%29.74 "HgN/A
12:50 PM86 °FPassing clouds.12 mph59%29.74 "HgN/A
11:50 AM86 °FPassing clouds.10 mph59%29.74 "HgN/A
10:50 AM86 °FScattered clouds.9 mph59%29.74 "HgN/A
9:50 AM86 °FScattered clouds.6 mph59%29.77 "HgN/A
8:50 AM82 °FScattered clouds.6 mph62%29.74 "HgN/A
7:50 AM81 °FPartly sunny.5 mph66%29.74 "HgN/A
6:50 AM79 °FPassing clouds.3 mph74%29.74 "HgN/A
5:50 AM79 °FPassing clouds.6 mph70%29.74 "HgN/A
4:50 AM79 °FPassing clouds.8 mph70%29.71 "HgN/A
10:50 PM
Jul 30
81 °FPassing clouds.3 mph74%29.74 "HgN/A
9:50 PM82 °FPassing clouds.5 mph74%29.74 "HgN/A
Weather by CustomWeather, © 2014

See weather overviewHow to use our weather pages